TimePST,TemperatureF,Dew PointF,Humidity,Sea Level PressureIn,VisibilityMPH,Wind Direction,Wind SpeedMPH,Gust SpeedMPH,PrecipitationIn,Events,Conditions,WindDirDegrees,DateUTC
12:53 AM,46.0,39.9,79,29.65,10.0,SSE,6.9,-,N/A,,Overcast,150,2012-12-12 08:53:00
1:53 AM,46.0,39.9,79,29.66,10.0,SSE,8.1,-,N/A,,Overcast,160,2012-12-12 09:53:00
2:53 AM,46.0,39.0,76,29.68,10.0,SSE,5.8,-,N/A,,Overcast,160,2012-12-12 10:53:00
3:53 AM,46.0,39.0,76,29.69,10.0,SSE,5.8,-,N/A,,Overcast,150,2012-12-12 11:53:00
4:53 AM,45.0,39.0,80,29.70,8.0,SSE,5.8,-,0.02,Rain,Light Rain,150,2012-12-12 12:53:00
5:53 AM,45.0,39.9,82,29.73,5.0,Calm,Calm,-,0.02,Rain,Light Rain,0,2012-12-12 13:53:00
6:53 AM,44.1,39.0,82,29.75,7.0,SSE,5.8,-,0.08,Rain,Light Rain,160,2012-12-12 14:53:00
7:53 AM,44.1,39.0,82,29.77,8.0,SSE,4.6,-,0.03,Rain,Light Rain,150,2012-12-12 15:53:00
8:33 AM,44.6,39.2,81,29.77,10.0,Calm,Calm,-,0.01,Rain,Light Rain,0,2012-12-12 16:33:00
8:53 AM,44.1,39.9,85,29.80,8.0,East,3.5,-,0.01,Rain,Light Rain,80,2012-12-12 16:53:00
9:53 AM,44.1,39.9,85,29.83,10.0,Calm,Calm,-,0.00,,Overcast,0,2012-12-12 17:53:00
10:53 AM,45.0,39.9,82,29.85,5.0,Calm,Calm,-,0.01,Rain,Light Rain,0,2012-12-12 18:53:00
11:53 AM,45.0,39.0,80,29.87,9.0,Calm,Calm,-,0.00,,Overcast,0,2012-12-12 19:53:00
12:00 PM,44.6,39.2,81,29.85,5.0,Calm,Calm,-,0.00,Rain,Light Rain,0,2012-12-12 20:00:00
12:09 PM,44.6,39.2,81,29.85,2.5,Calm,Calm,-,0.02,Rain,Rain,0,2012-12-12 20:09:00
12:33 PM,44.6,39.2,81,29.86,3.0,Calm,Calm,-,0.06,Rain,Light Rain,0,2012-12-12 20:33:00
12:53 PM,45.0,39.9,82,29.87,4.0,South,3.5,-,0.07,Rain,Light Rain,170,2012-12-12 20:53:00
1:42 PM,44.6,41.0,87,29.87,10.0,Calm,Calm,-,0.00,,Overcast,0,2012-12-12 21:42:00
1:53 PM,46.0,41.0,83,29.89,10.0,Calm,Calm,-,0.00,,Overcast,0,2012-12-12 21:53:00
2:13 PM,46.4,41.0,81,29.87,10.0,Calm,Calm,-,N/A,,Overcast,0,2012-12-12 22:13:00
2:30 PM,46.4,41.0,81,29.88,10.0,Calm,Calm,-,N/A,,Overcast,0,2012-12-12 22:30:00
2:42 PM,46.4,41.0,81,29.89,10.0,East,4.6,-,N/A,,Mostly Cloudy,100,2012-12-12 22:42:00
2:53 PM,46.0,41.0,83,29.91,10.0,Calm,Calm,-,N/A,,Mostly Cloudy,0,2012-12-12 22:53:00
2:56 PM,44.6,41.0,87,29.89,10.0,ESE,3.5,-,N/A,,Overcast,110,2012-12-12 22:56:00
3:09 PM,44.6,41.0,87,29.90,10.0,East,3.5,-,N/A,,Overcast,100,2012-12-12 23:09:00
3:53 PM,45.0,39.9,82,29.93,8.0,East,5.8,-,N/A,,Overcast,100,2012-12-12 23:53:00
4:10 PM,44.6,39.2,81,29.91,10.0,East,5.8,-,N/A,,Overcast,100,2012-12-13 00:10:00
4:36 PM,44.6,39.2,81,29.92,10.0,Calm,Calm,-,0.00,,Mostly Cloudy,0,2012-12-13 00:36:00
4:50 PM,44.6,39.2,81,29.93,10.0,Calm,Calm,-,0.00,,Mostly Cloudy,0,2012-12-13 00:50:00
4:53 PM,45.0,39.9,82,29.94,10.0,Calm,Calm,-,0.00,,Mostly Cloudy,0,2012-12-13 00:53:00
5:10 PM,44.6,39.2,81,29.93,10.0,Calm,Calm,-,N/A,,Overcast,0,2012-12-13 01:10:00
5:53 PM,45.0,39.9,82,29.96,10.0,Calm,Calm,-,N/A,,Overcast,0,2012-12-13 01:53:00
6:42 PM,44.6,41.0,87,29.95,10.0,Calm,Calm,-,N/A,,Overcast,0,2012-12-13 02:42:00
6:53 PM,45.0,41.0,86,29.97,10.0,Calm,Calm,-,N/A,,Overcast,0,2012-12-13 02:53:00
7:53 PM,45.0,41.0,86,30.00,8.0,Calm,Calm,-,N/A,,Overcast,0,2012-12-13 03:53:00
8:53 PM,44.1,39.9,85,30.01,9.0,Calm,Calm,-,N/A,,Overcast,0,2012-12-13 04:53:00
9:45 PM,42.8,39.2,87,30.01,9.0,Calm,Calm,-,N/A,,Mostly Cloudy,0,2012-12-13 05:45:00
9:53 PM,43.0,39.0,86,30.03,8.0,Calm,Calm,-,N/A,,Mostly Cloudy,0,2012-12-13 05:53:00
10:31 PM,42.8,37.4,81,30.02,10.0,Calm,Calm,-,N/A,,Mostly Cloudy,0,2012-12-13 06:31:00
10:53 PM,42.1,37.9,85,30.04,8.0,Calm,Calm,-,N/A,,Overcast,0,2012-12-13 06:53:00
11:53 PM,42.1,37.9,85,30.05,10.0,Calm,Calm,-,N/A,,Overcast,0,2012-12-13 07:53:00